Time,TemperatureF,DewpointF,PressureIn,WindDirection,WindDirectionDegrees,WindSpeedMPH,WindSpeedGustMPH,Humidity,HourlyPrecipIn,Conditions,Clouds,dailyrainin,SolarRadiationWatts/m^2,SoftwareType,DateUTC
2013-06-26 00:11:00,65.0,60.0,-100.00,SW,232,3.0,5.0,83,0.00,,,0.00,0.000000,,2013-06-26 07:11:00,
2013-06-26 00:22:00,65.0,60.0,-100.00,SW,232,3.0,5.0,83,0.00,,,0.00,0.000000,,2013-06-26 07:22:00,
2013-06-26 00:33:00,65.0,60.0,-100.00,SW,232,3.0,5.0,83,0.00,,,0.00,0.000000,,2013-06-26 07:33:00,
2013-06-26 00:43:00,65.0,60.0,-100.00,SW,232,3.0,5.0,83,0.00,,,0.00,0.000000,,2013-06-26 07:43:00,
2013-06-26 00:51:00,64.0,59.0,-100.00,SW,218,3.0,5.0,84,0.00,,,0.00,0.000000,,2013-06-26 07:51:00,
2013-06-26 01:22:00,64.0,59.0,-100.00,SW,218,3.0,5.0,84,0.00,,,0.00,0.000000,,2013-06-26 08:22:00,
2013-06-26 01:33:00,64.0,59.0,-100.00,SW,218,3.0,5.0,84,0.00,,,0.00,0.000000,,2013-06-26 08:33:00,
2013-06-26 01:42:00,64.0,59.0,-100.00,SW,218,3.0,5.0,84,0.00,,,0.00,0.000000,,2013-06-26 08:42:00,
2013-06-26 01:51:00,63.0,60.0,-100.00,South,178,6.0,8.0,89,0.00,,,0.00,0.000000,,2013-06-26 08:51:00,
2013-06-26 02:11:00,63.0,60.0,-100.00,South,178,6.0,8.0,89,0.00,,,0.00,0.000000,,2013-06-26 09:11:00,
2013-06-26 02:22:00,63.0,60.0,-100.00,South,178,6.0,8.0,89,0.00,,,0.00,0.000000,,2013-06-26 09:22:00,
2013-06-26 02:32:00,63.0,60.0,-100.00,South,178,6.0,8.0,89,0.00,,,0.00,0.000000,,2013-06-26 09:32:00,
2013-06-26 02:43:00,63.0,60.0,-100.00,South,178,6.0,8.0,89,0.00,,,0.00,0.000000,,2013-06-26 09:43:00,
2013-06-26 02:51:00,62.0,59.0,-100.00,ESE,118,5.0,6.0,89,0.00,,,0.00,0.000000,,2013-06-26 09:51:00,
2013-06-26 03:12:00,62.0,59.0,-100.00,ESE,118,5.0,6.0,89,0.00,,,0.00,0.000000,,2013-06-26 10:12:00,
2013-06-26 03:22:00,62.0,59.0,-100.00,ESE,118,5.0,6.0,89,0.00,,,0.00,0.000000,,2013-06-26 10:22:00,
2013-06-26 03:34:00,62.0,59.0,-100.00,ESE,118,5.0,6.0,89,0.00,,,0.00,0.000000,,2013-06-26 10:34:00,
2013-06-26 03:43:00,62.0,59.0,-100.00,ESE,118,5.0,6.0,89,0.00,,,0.00,0.000000,,2013-06-26 10:43:00,
2013-06-26 03:51:00,61.0,60.0,-100.00,SSE,157,4.0,7.0,95,0.00,,,0.00,0.000000,,2013-06-26 10:51:00,
2013-06-26 04:11:00,61.0,60.0,-100.00,SSE,157,4.0,7.0,95,0.00,,,0.00,0.000000,,2013-06-26 11:11:00,
2013-06-26 04:22:00,61.0,60.0,-100.00,SSE,157,4.0,7.0,95,0.00,,,0.00,0.000000,,2013-06-26 11:22:00,
2013-06-26 04:32:00,61.0,60.0,-100.00,SSE,157,4.0,7.0,95,0.00,,,0.00,0.000000,,2013-06-26 11:32:00,
2013-06-26 04:44:00,61.0,60.0,-100.00,SSE,157,4.0,7.0,95,0.00,,,0.00,0.000000,,2013-06-26 11:44:00,
2013-06-26 04:51:00,59.0,58.0,-100.00,East,85,3.0,6.0,98,0.00,,,-99.99,0.000000,,2013-06-26 11:51:00,
2013-06-26 05:12:00,59.0,58.0,-100.00,East,85,3.0,6.0,98,0.00,,,-99.99,0.000000,,2013-06-26 12:12:00,
2013-06-26 05:22:00,59.0,58.0,-100.00,East,85,3.0,6.0,98,0.00,,,-99.99,0.000000,,2013-06-26 12:22:00,
2013-06-26 05:33:00,59.0,58.0,-100.00,East,85,3.0,6.0,98,0.00,,,-99.99,0.000000,,2013-06-26 12:33:00,
2013-06-26 05:42:00,59.0,58.0,-100.00,East,85,3.0,6.0,98,0.00,,,-99.99,0.000000,,2013-06-26 12:42:00,
2013-06-26 05:51:00,60.0,60.0,-100.00,East,80,3.0,4.0,99,0.00,,,0.00,1.000000,,2013-06-26 12:51:00,
2013-06-26 06:22:00,60.0,60.0,-100.00,East,80,3.0,4.0,99,0.00,,,0.00,1.000000,,2013-06-26 13:22:00,
2013-06-26 06:34:00,60.0,60.0,-100.00,East,80,3.0,4.0,99,0.00,,,0.00,1.000000,,2013-06-26 13:34:00,
2013-06-26 06:42:00,60.0,60.0,-100.00,East,80,3.0,4.0,99,0.00,,,0.00,1.000000,,2013-06-26 13:42:00,
2013-06-26 06:51:00,60.0,60.0,-100.00,East,81,3.0,5.0,100,0.00,,,0.00,26.000000,,2013-06-26 13:51:00,
2013-06-26 07:23:00,60.0,60.0,-100.00,East,81,3.0,5.0,100,0.00,,,0.00,26.000000,,2013-06-26 14:23:00,
2013-06-26 07:34:00,60.0,60.0,-100.00,East,81,3.0,5.0,100,0.00,,,0.00,26.000000,,2013-06-26 14:34:00,
2013-06-26 07:42:00,60.0,60.0,-100.00,East,81,3.0,5.0,100,0.00,,,0.00,26.000000,,2013-06-26 14:42:00,
2013-06-26 07:51:00,65.0,62.0,-100.00,West,263,5.0,8.0,91,0.00,,,0.00,201.000000,,2013-06-26 14:51:00,
2013-06-26 08:11:00,65.0,62.0,-100.00,West,263,5.0,8.0,91,0.00,,,0.00,201.000000,,2013-06-26 15:11:00,
2013-06-26 08:22:00,65.0,62.0,-100.00,West,263,5.0,8.0,91,0.00,,,0.00,201.000000,,2013-06-26 15:22:00,
2013-06-26 08:34:00,65.0,62.0,-100.00,West,263,5.0,8.0,91,0.00,,,0.00,201.000000,,2013-06-26 15:34:00,
2013-06-26 08:43:00,65.0,62.0,-100.00,West,263,5.0,8.0,91,0.00,,,0.00,201.000000,,2013-06-26 15:43:00,
2013-06-26 08:51:00,71.0,62.0,-100.00,West,270,5.0,7.0,72,0.00,,,0.00,411.000000,,2013-06-26 15:51:00,
2013-06-26 09:11:00,71.0,62.0,-100.00,West,270,5.0,7.0,72,0.00,,,0.00,411.000000,,2013-06-26 16:11:00,
2013-06-26 09:22:00,71.0,62.0,-100.00,West,270,5.0,7.0,72,0.00,,,0.00,411.000000,,2013-06-26 16:22:00,
2013-06-26 09:34:00,71.0,62.0,-100.00,West,270,5.0,7.0,72,0.00,,,0.00,411.000000,,2013-06-26 16:34:00,
2013-06-26 09:43:00,71.0,62.0,-100.00,West,270,5.0,7.0,72,0.00,,,0.00,411.000000,,2013-06-26 16:43:00,
2013-06-26 09:51:00,75.0,61.0,-100.00,West,261,5.0,9.0,61,0.00,,,0.00,596.000000,,2013-06-26 16:51:00,
2013-06-26 10:23:00,75.0,61.0,-100.00,West,261,5.0,9.0,61,0.00,,,0.00,596.000000,,2013-06-26 17:23:00,
2013-06-26 10:33:00,75.0,61.0,-100.00,West,261,5.0,9.0,61,0.00,,,0.00,596.000000,,2013-06-26 17:33:00,
2013-06-26 10:43:00,75.0,61.0,-100.00,West,261,5.0,9.0,61,0.00,,,0.00,596.000000,,2013-06-26 17:43:00,
2013-06-26 10:51:00,80.0,62.0,-100.00,WSW,251,8.0,12.0,54,0.00,,,0.00,751.000000,,2013-06-26 17:51:00,
2013-06-26 11:22:00,80.0,62.0,-100.00,WSW,251,8.0,12.0,54,0.00,,,0.00,751.000000,,2013-06-26 18:22:00,
2013-06-26 11:34:00,80.0,62.0,-100.00,WSW,251,8.0,12.0,54,0.00,,,0.00,751.000000,,2013-06-26 18:34:00,
2013-06-26 11:43:00,80.0,62.0,-100.00,WSW,251,8.0,12.0,54,0.00,,,0.00,751.000000,,2013-06-26 18:43:00,
2013-06-26 11:51:00,78.0,62.0,-100.00,WSW,250,12.0,17.0,58,0.00,,,0.00,863.000000,,2013-06-26 18:51:00,
2013-06-26 12:11:00,78.0,62.0,-100.00,WSW,250,12.0,17.0,58,0.00,,,0.00,863.000000,,2013-06-26 19:11:00,
2013-06-26 12:22:00,78.0,62.0,-100.00,WSW,250,12.0,17.0,58,0.00,,,0.00,863.000000,,2013-06-26 19:22:00,
2013-06-26 12:32:00,78.0,62.0,-100.00,WSW,250,12.0,17.0,58,0.00,,,0.00,863.000000,,2013-06-26 19:32:00,
2013-06-26 12:42:00,78.0,62.0,-100.00,WSW,250,12.0,17.0,58,0.00,,,0.00,863.000000,,2013-06-26 19:42:00,
2013-06-26 12:51:00,81.0,62.0,-100.00,West,261,13.0,17.0,53,0.00,,,0.00,923.000000,,2013-06-26 19:51:00,
2013-06-26 13:22:00,81.0,62.0,-100.00,West,261,13.0,17.0,53,0.00,,,0.00,923.000000,,2013-06-26 20:22:00,
2013-06-26 13:33:00,81.0,62.0,-100.00,West,261,13.0,17.0,53,0.00,,,0.00,923.000000,,2013-06-26 20:33:00,
2013-06-26 13:43:00,81.0,62.0,-100.00,West,261,13.0,17.0,53,0.00,,,0.00,923.000000,,2013-06-26 20:43:00,
2013-06-26 13:51:00,82.0,61.0,-100.00,WSW,254,12.0,17.0,49,0.00,,,0.00,929.000000,,2013-06-26 20:51:00,
2013-06-26 14:11:00,82.0,61.0,-100.00,WSW,254,12.0,17.0,49,0.00,,,0.00,929.000000,,2013-06-26 21:11:00,
2013-06-26 14:23:00,82.0,61.0,-100.00,WSW,254,12.0,17.0,49,0.00,,,0.00,929.000000,,2013-06-26 21:23:00,
2013-06-26 14:33:00,82.0,61.0,-100.00,WSW,254,12.0,17.0,49,0.00,,,0.00,929.000000,,2013-06-26 21:33:00,
2013-06-26 14:43:00,82.0,61.0,-100.00,WSW,254,12.0,17.0,49,0.00,,,0.00,929.000000,,2013-06-26 21:43:00,
2013-06-26 14:51:00,84.0,60.0,-100.00,WSW,247,11.0,16.0,45,0.00,,,0.00,890.000000,,2013-06-26 21:51:00,
2013-06-26 15:21:00,84.0,60.0,-100.00,WSW,247,11.0,16.0,45,0.00,,,0.00,890.000000,,2013-06-26 22:21:00,
2013-06-26 15:33:00,84.0,60.0,-100.00,WSW,247,11.0,16.0,45,0.00,,,0.00,890.000000,,2013-06-26 22:33:00,
2013-06-26 15:43:00,84.0,60.0,-100.00,WSW,247,11.0,16.0,45,0.00,,,0.00,890.000000,,2013-06-26 22:43:00,
2013-06-26 15:51:00,83.0,60.0,-100.00,WSW,249,12.0,16.0,46,0.00,,,0.00,795.000000,,2013-06-26 22:51:00,
2013-06-26 16:11:00,83.0,60.0,-100.00,WSW,249,12.0,16.0,46,0.00,,,0.00,795.000000,,2013-06-26 23:11:00,
2013-06-26 16:22:00,83.0,60.0,-100.00,WSW,249,12.0,16.0,46,0.00,,,0.00,795.000000,,2013-06-26 23:22:00,
2013-06-26 16:34:00,83.0,60.0,-100.00,WSW,249,12.0,16.0,46,0.00,,,0.00,795.000000,,2013-06-26 23:34:00,
2013-06-26 16:43:00,83.0,60.0,-100.00,WSW,249,12.0,16.0,46,0.00,,,0.00,795.000000,,2013-06-26 23:43:00,
2013-06-26 16:51:00,84.0,60.0,-100.00,WSW,254,11.0,15.0,44,0.00,,,0.00,650.000000,,2013-06-26 23:51:00,
2013-06-26 17:22:00,84.0,60.0,-100.00,WSW,254,11.0,15.0,44,0.00,,,0.00,650.000000,,2013-06-27 00:22:00,
2013-06-26 17:33:00,84.0,60.0,-100.00,WSW,254,11.0,15.0,44,0.00,,,0.00,650.000000,,2013-06-27 00:33:00,
2013-06-26 17:42:00,84.0,60.0,-100.00,WSW,254,11.0,15.0,44,0.00,,,0.00,650.000000,,2013-06-27 00:42:00,
2013-06-26 17:51:00,83.0,60.0,-100.00,West,263,11.0,14.0,46,0.00,,,0.00,475.000000,,2013-06-27 00:51:00,
2013-06-26 18:11:00,83.0,60.0,-100.00,West,263,11.0,14.0,46,0.00,,,0.00,475.000000,,2013-06-27 01:11:00,
2013-06-26 18:21:00,83.0,60.0,-100.00,West,263,11.0,14.0,46,0.00,,,0.00,475.000000,,2013-06-27 01:21:00,
2013-06-26 18:32:00,83.0,60.0,-100.00,West,263,11.0,14.0,46,0.00,,,0.00,475.000000,,2013-06-27 01:32:00,
2013-06-26 18:42:00,83.0,60.0,-100.00,West,263,11.0,14.0,46,0.00,,,0.00,475.000000,,2013-06-27 01:42:00,
2013-06-26 18:51:00,81.0,61.0,-100.00,West,263,6.0,13.0,50,0.00,,,0.00,287.000000,,2013-06-27 01:51:00,
2013-06-26 19:11:00,81.0,61.0,-100.00,West,263,6.0,13.0,50,0.00,,,0.00,287.000000,,2013-06-27 02:11:00,
2013-06-26 19:22:00,81.0,61.0,-100.00,West,263,6.0,13.0,50,0.00,,,0.00,287.000000,,2013-06-27 02:22:00,
2013-06-26 19:32:00,81.0,61.0,-100.00,West,263,6.0,13.0,50,0.00,,,0.00,287.000000,,2013-06-27 02:32:00,
2013-06-26 19:42:00,81.0,61.0,-100.00,West,263,6.0,13.0,50,0.00,,,0.00,287.000000,,2013-06-27 02:42:00,
2013-06-26 19:51:00,76.0,60.0,-100.00,West,262,7.0,11.0,58,0.00,,,0.00,105.000000,,2013-06-27 02:51:00,
2013-06-26 20:11:00,76.0,60.0,-100.00,West,262,7.0,11.0,58,0.00,,,0.00,105.000000,,2013-06-27 03:11:00,
2013-06-26 20:21:00,76.0,60.0,-100.00,West,262,7.0,11.0,58,0.00,,,0.00,105.000000,,2013-06-27 03:21:00,
2013-06-26 20:32:00,76.0,60.0,-100.00,West,262,7.0,11.0,58,0.00,,,0.00,105.000000,,2013-06-27 03:32:00,
2013-06-26 20:42:00,76.0,60.0,-100.00,West,262,7.0,11.0,58,0.00,,,0.00,105.000000,,2013-06-27 03:42:00,
2013-06-26 20:51:00,70.0,59.0,-100.00,WSW,258,3.0,9.0,69,0.00,,,0.00,3.000000,,2013-06-27 03:51:00,
2013-06-26 21:11:00,70.0,59.0,-100.00,WSW,258,3.0,9.0,69,0.00,,,0.00,3.000000,,2013-06-27 04:11:00,
2013-06-26 21:22:00,70.0,59.0,-100.00,WSW,258,3.0,9.0,69,0.00,,,0.00,3.000000,,2013-06-27 04:22:00,
2013-06-26 21:32:00,70.0,59.0,-100.00,WSW,258,3.0,9.0,69,0.00,,,0.00,3.000000,,2013-06-27 04:32:00,
2013-06-26 21:42:00,70.0,59.0,-100.00,WSW,258,3.0,9.0,69,0.00,,,0.00,3.000000,,2013-06-27 04:42:00,
2013-06-26 21:51:00,66.0,60.0,-100.00,SSW,197,5.0,7.0,81,0.00,,,0.00,0.000000,,2013-06-27 04:51:00,
2013-06-26 22:12:00,66.0,60.0,-100.00,SSW,197,5.0,7.0,81,0.00,,,0.00,0.000000,,2013-06-27 05:12:00,
2013-06-26 22:21:00,66.0,60.0,-100.00,SSW,197,5.0,7.0,81,0.00,,,0.00,0.000000,,2013-06-27 05:21:00,
2013-06-26 22:32:00,66.0,60.0,-100.00,SSW,197,5.0,7.0,81,0.00,,,0.00,0.000000,,2013-06-27 05:32:00,
2013-06-26 22:42:00,66.0,60.0,-100.00,SSW,197,5.0,7.0,81,0.00,,,0.00,0.000000,,2013-06-27 05:42:00,
2013-06-26 22:51:00,64.0,61.0,-100.00,West,263,0.0,7.0,89,0.00,,,0.00,0.000000,,2013-06-27 05:51:00,
2013-06-26 23:12:00,64.0,61.0,-100.00,West,263,0.0,7.0,89,0.00,,,0.00,0.000000,,2013-06-27 06:12:00,
2013-06-26 23:22:00,64.0,61.0,-100.00,West,263,0.0,7.0,89,0.00,,,0.00,0.000000,,2013-06-27 06:22:00,
2013-06-26 23:34:00,64.0,61.0,-100.00,West,263,0.0,7.0,89,0.00,,,0.00,0.000000,,2013-06-27 06:34:00,
2013-06-26 23:43:00,64.0,61.0,-100.00,West,263,0.0,7.0,89,0.00,,,0.00,0.000000,,2013-06-27 06:43:00,
2013-06-26 23:51:00,64.0,61.0,-100.00,SSE,164,3.0,6.0,91,0.00,,,0.00,0.000000,,2013-06-27 06:51:00,